Tracking 30101 objects as of 14-Dec-2024
HD Live streaming from Space Station
objects crossing your sky now

JUPITER 3 (ECHOSTAR 24)

Track JUPITER 3 (ECHOSTAR 24) now!
JUPITER 3 (ECHOSTAR 24) is classified as:


NORAD ID: 57479
Int'l Code: 2023-108A
Perigee: 35,788.3 km
Apogee: 35,800.0 km
Inclination: 0.0 °
Period: 1,436.1 minutes
Semi major axis: 42165 km
RCS: Unknown
Launch date: July 29, 2023
Source: United States (US)
Launch site: AIR FORCE EASTERN TEST RANGE (AFETR)
Your satellite tracking list
Your tracking list is empty




NASA's NSSDC Master Catalog

Two Line Element Set (TLE):
1 57479U 23108A   24348.03612358 -.00000136  00000-0  00000+0 0  9995
2 57479   0.0208 351.5867 0001391 259.3886 109.0096  1.00270330  5123
Source of the keplerian elements: AFSPC